Regional Weather Roundup
Issued by NWS Newport/Morehead, NC

Current Version | Previous Version | Graphics & Text | Print | Product List | Glossary Off
Versions: 1 2 3 4 5 6 7 8 9 10 11 12 13 14 15 16 17 18 19 20 21 22 23 24 25 26 27 28 29 30 31 32 33 34 35 36 37 38 39 40 41 42 43 44 45 46 47 48 49 50
000 ASUS42 KMHX 111725 RWRMHX WEATHER ROUNDUP FOR EASTERN NORTH CAROLINA NATIONAL WEATHER SERVICE NEWPORT/MOREHEAD CITY NC 1200 PM EST THU FEB 11 2016 NOTE: "FAIR" INDICATES FEW OR NO CLOUDS BELOW 12,000 FEET WITH NO SIGNIFICANT WEATHER AND/OR OBSTRUCTIONS TO VISIBILITY NCZ015>017-031-032-045>047-102-103-111800- NORTH COAST CITY SKY/WX TMP DP RH WIND PRES REMARKS EDENTON SUNNY 35 7 30 NW14G20 30.17F ELIZABETH CITY SUNNY 33 8 35 W17 30.16F KITTY HAWK SUNNY 34 7 33 W16G22 30.13F MANTEO SUNNY 32 10 39 NW14G23 30.16F $$ NCZ045>047-081-094-103-104-111800- CENTRAL COAST CITY SKY/WX TMP DP RH WIND PRES REMARKS FRISCO SUNNY 36 10 34 NW14G25 30.17F SWANQUARTER N/A 36 N/A N/A SW6G23 30.15S $$ NCZ095-097-098-100-101-111800- SOUTHERN COAST CITY SKY/WX TMP DP RH WIND PRES REMARKS BEAUFORT SUNNY 38 11 32 W16 30.20F CEDAR ISLAND N/A 37 N/A N/A W10G23 30.21F JACKSONVILLE SUNNY 38 8 29 NW15G24 30.21F PINEY ISLAND SUNNY N/A N/A N/A W16G25 30.19F WILMINGTON SUNNY 40 11 30 NW12 30.23F $$ NCZ011>013-027>030-043-044-078>080-089-090>093-098-111800- COASTAL PLAIN CITY SKY/WX TMP DP RH WIND PRES REMARKS AHOSKIE SUNNY 32 6 33 W3 30.18F CLINTON SUNNY 37 11 35 NW6 30.23F ELIZABETHTOWN SUNNY 38 9 29 W7 30.22F GOLDSBORO SUNNY 37 5 25 W13G18 30.19F GREENVILLE SUNNY 34 7 32 NW8G20 30.20F HAVELOCK SUNNY 38 6 26 W15G28 30.21F KENANSVILLE SUNNY 36 8 31 CALM 30.23F KINSTON SUNNY 36 5 27 W8G20 30.21F NEW BERN SUNNY 37 8 30 NW9G20 30.21F RICHLANDS SUNNY 37 9 30 SW10G17 30.21F ROCKY MOUNT SUNNY 35 9 33 W15 30.20F WASHINGTON SUNNY 35 8 32 W8G22 30.19F WHITEVILLE SUNNY 39 12 32 NW5 30.22F $$ AMZ130-135-150-152-154-156-158-170-250-252-270-ANZ085-086-088-633-658-670-111800- MARINE OBSERVATIONS STATION/POSITION TIME TEMP WIND PRES WAVE SWELL AIR SEA DIR/SP/G HT/PER HT/PER (UTC) (F) (DEG/KT/KT) (MB) (FT/S) (FT/S) CHESAPEAKE LIGHT 1700 30 300/ 22/ 25 1021.0 64 E VA BEACH 1650 30 49 290/ 21/ 29 1019.2 7/ 7 2/11 DUCK 1700 30 290/ 16/ 20 1020.2 2 E DUCK 1711 44 N/A 2/12 2/12 OREGON INLET 1700 31 40 300/ 13/ 20 1020.7 13E OREGON INLT 1700 46 N/A 5/ 6 2/13 HATTERAS CG 1700 34 44 280/ 21/ 25 1020.9 DIAMOND BUOY 1650 36 63 300/ 23/ 29 1021.2 7/ 5 2/12 CAPE LOOKOUT NOT AVBL BEAUFORT LAB 1700 36 45 290/ 11/ 18 1021.6 30 SE NEW RVR IN 1708 37 58 1023.2 30 SE NEW RVR IN 1625 58 N/A 6/ 9 2/11 27 SE WRIGHTSVLE 1708 41 60 300/ 14/ 19 1022.7 5 SE WRIGHTSVLE 1608 35 51 280/ 8/ 12 1024.3 225 S CAPE HAT 1650 54 68 300/ 23/ 29 N/A 12/ 9 7/ 9 41 SE CHARLESTON 1650 43 63 290/ 14/ 17 1024.5 5/ 6 3/ 7 $$

USA.gov is the U.S. government's official web portal to all federal, state and local government web resources and services.